Home   Weather   Woodstock   Past weeks

Flag for USA Past Weather in Woodstock, New York, USA — Yesterday and Last 2 Weeks

Now
37 °F

Light rain. Fog.


Feels Like: 37 °F
Forecast: 35 / 51 °F
Wind: No wind

Location: Dutchess County Airport

Current Time: Jan 20, 2017 at 11:26:27 pm

Latest Report: Jan 20, 2017 at 10:53 pm


Visibility: 3 mi

Pressure: 29.90 "Hg

Humidity: 96%

Dew Point: 36 °F

Location of WoodstockLocation

Past Weather in Woodstock — Graph

°F

Woodstock Temperature Yesterday

Maximum temperature yesterday: 47 °F (at 1:53 pm)
Minimum temperature yesterday: 32 °F (at 4:12 am)
Average temperature yesterday: 38 °F

High & Low Weather Summary for the Past Weeks

 TemperatureHumidityPressure
High56 °F (Jan 12, 12:53 pm)100% (Jan 12, 12:04 am)30.72 "Hg (Jan 12, 12:04 am)
Low0 °F (Jan 9, 6:53 am)38% (Jan 13, 2:53 pm)29.90 "Hg (Jan 20, 2:53 pm)
Average30 °F76%30.23 "Hg
* Reported Jan 5 9:53 pm — Jan 20 9:44 pm, Woodstock, Weather by CustomWeather, © 2017

Note: Actual official high and low records may vary slightly from our data, if they occured in-between our weather recording intervals... More about our weather records

Advertising

Woodstock Weather History for the Previous 24 Hours

Scroll right to see more
 ConditionsComfort  
Time TempWeatherWind HumidityBarometerVisibility
9:44 pm
Fri, Jan 20
38 °FLight rain. Fog.No wind93%29.92 "Hg3 mi
9:00 pm37 °FLight rain. Fog.No wind96%29.91 "Hg2 mi
7:53 pm39 °FOvercast.6 mph82%29.90 "Hg10 mi
6:53 pm39 °FOvercast.3 mph82%29.91 "Hg10 mi
5:53 pm39 °FMostly cloudy.3 mph86%29.90 "Hg10 mi
4:53 pm41 °FOvercast.No wind70%29.90 "Hg10 mi
3:53 pm42 °FOvercast.5 mph68%29.90 "Hg10 mi
2:53 pm42 °FOvercast.5 mph68%29.90 "Hg10 mi
1:53 pm41 °FOvercast.6 mph67%29.92 "Hg10 mi
12:53 pm41 °FOvercast.3 mph67%29.93 "Hg10 mi
11:53 am39 °FOvercast.5 mph70%29.97 "Hg10 mi
10:53 am39 °FOvercast.3 mph70%29.99 "Hg10 mi
9:53 am38 °FOvercast.3 mph70%30.00 "Hg10 mi
8:53 am37 °FOvercast.5 mph73%29.99 "Hg10 mi
7:53 am35 °FOvercast.No wind82%29.99 "Hg10 mi
6:53 am36 °FOvercast.No wind79%29.99 "Hg10 mi
5:53 am36 °FOvercast.3 mph75%29.99 "Hg10 mi
4:53 am36 °FOvercast.No wind79%30.00 "Hg10 mi
3:53 am36 °FOvercast.No wind79%30.02 "Hg10 mi
2:53 am37 °FOvercast.No wind73%30.02 "Hg10 mi
1:53 am38 °FOvercast.5 mph70%30.02 "Hg10 mi
12:53 am38 °FOvercast.7 mph70%30.00 "Hg10 mi
11:53 pm
Thu, Jan 19
38 °FOvercast.8 mph70%30.01 "Hg10 mi
Weather by CustomWeather, © 2017

See weather overviewHow to use our weather pages